Home > Weather > Ann Arbor > Past weeks

Flag for USA Past Weather in Ann Arbor, Michigan, USA — Yesterday and Last 2 Weeks

Now
70 °F

Clear.


Feels Like: 70 °F
Forecast: 60 / 84 °F
Wind: 7 mph from West

Location: Ann Arbor Municipal Airport

Current Time: Aug 26, 2016 at 1:10:29 AM

Latest Report: Aug 25, 2016 at 11:53 PM


Visibility: 10 mi

Pressure: 30.02 "Hg

Humidity: 81%

Dew Point: 64 °F

Location of Ann ArborLocation

Past Weather in Ann Arbor — Graph

°F

Ann Arbor Temperature Yesterday

Maximum temperature yesterday: 88 °F (at 2:53 PM)
Minimum temperature yesterday: 69 °F (at 2:02 AM)
Average temperature yesterday: 76 °F

High & Low Weather Summary for the Past Weeks

 TemperatureHumidityPressure
High92 °F (Aug 11, 3:53 PM)100% (Aug 11, 6:53 AM)30.27 "Hg (Aug 11, 6:53 AM)
Low48 °F (Aug 23, 6:55 AM)39% (Aug 22, 1:53 PM)29.60 "Hg (Aug 20, 7:53 PM)
Average72 °F84%29.97 "Hg
* Reported Aug 10 11:53 PM — Aug 25 11:53 PM, Ann Arbor, Weather by CustomWeather, © 2016

Note: Actual official high and low records may vary slightly from our data, if they occured in-between our weather recording intervals... More about our weather records

Advertising

Ann Arbor Weather History for the Previous 24 Hours

Scroll right to see more
 ConditionsComfort  
Time TempWeatherWind HumidityBarometerVisibility
11:53 PM
Thu, Aug 25
70 °FClear.7 mph81%30.02 "Hg10 mi
10:53 PM73 °FClear.7 mph79%30.02 "Hg10 mi
9:53 PM69 °FClear.6 mph96%30.01 "Hg10 mi
8:53 PM74 °FSunny.6 mph88%29.99 "Hg10 mi
7:53 PM78 °FScattered clouds.N/A76%29.97 "Hg10 mi
6:53 PM81 °FPassing clouds.8 mph69%29.96 "Hg10 mi
5:53 PM84 °FBroken clouds.8 mph63%29.96 "Hg10 mi
4:53 PM83 °FMostly cloudy.12 mph65%29.95 "Hg10 mi
3:53 PM86 °FPassing clouds.N/A57%29.94 "Hg10 mi
2:53 PM88 °FScattered clouds.14 mph52%29.95 "Hg10 mi
1:53 PM84 °FScattered clouds.15 mph63%29.96 "Hg10 mi
12:53 PM83 °FPassing clouds.10 mph72%29.96 "Hg10 mi
11:53 AM80 °FScattered clouds.8 mph79%29.97 "Hg10 mi
10:53 AM80 °FSunny.9 mph79%29.97 "Hg10 mi
9:53 AM76 °FSunny.5 mph91%29.97 "Hg10 mi
8:53 AM72 °FFog.3 mph97%29.98 "Hg6 mi
7:53 AM71 °FFog.N/A100%29.98 "Hg4 mi
6:53 AM69 °FFog.3 mph100%29.98 "Hg1 mi
5:53 AM70 °FFog.3 mph100%29.97 "Hg4 mi
4:53 AM71 °FFog.5 mph100%29.96 "Hg4 mi
3:53 AM72 °FFog.9 mph100%29.96 "Hg5 mi
2:53 AM72 °FFog.9 mph100%29.94 "Hg5 mi
2:02 AM69 °FFog.3 mph100%29.95 "Hg1 mi
1:00 AM70 °FFog.No wind100%29.95 "Hg1 mi
Weather by CustomWeather, © 2016

See weather overviewHow to use our weather pages